Location: Newark
(13.6797°N, 8.5297°E)
Time: 03:28:34
(UTC+00:00)

Altair - Pass Details

Date: 03 February 2020
Orbit: 1502 x 1682 km, 47.2° (Epoch: 17 February)

Event Time Altitude Azimuth Distance (km) Brightness Sun altitude
Rises 14:31:01 0° 306° (NW) 4,909 10.4 38.0°
Reaches altitude 10° 14:34:24 10° 300° (WNW) 3,905 10.0 37.3°
Maximum altitude 14:43:37 43° 233° (SW) 2,152 10.9 35.4°
Drops below altitude 10° 14:52:33 10° 164° (SSE) 3,778 9.8 33.6°
Sets 14:55:49 0° 158° (SSE) 4,737 10.2 32.9°
